Theta_e
300 300 300 299 299 299 300 299 299 299 299 300 300 304 305 309 309 309 309 309 309 309 310 312 312 311 312 313 314 314 310 310 310 311 309 312 311 312 312 311 311 312 313 312 313
300 300 300 299 299 299 300 300 300 300 300 300 301 305 306 309 311 309 308 309 309 309 309 311 313 313 313 312 312 309 306 311 311 311 312 312 311 312 312 311 312 312 313 313 313
300 300 300 300 299 300 300 300 300 300 300 300 301 305 306 311 313 309 308 309 309 309 309 310 314 314 313 313 312 311 308 311 311 313 313 312 312 312 311 310 311 310 313 313 313
300 300 299 300 299 300 300 300 300 299 299 300 302 305 310 312 314 309 308 308 309 309 308 310 312 314 311 312 313 310 312 312 312 312 313 312 312 312 312 311 310 311 311 311 311
300 300 300 300 300 300 300 300 300 300 300 300 302 305 308 310 308 309 308 308 309 308 309 309 312 313 312 312 312 312 312 312 312 313 313 312 311 311 311 311 311 311 311 311 310
300 300 300 300 300 300 300 300 300 300 300 300 303 306 311 312 308 309 308 309 309 308 308 310 313 312 312 313 312 312 312 311 312 312 312 311 310 311 311 311 311 311 310 309 308
300 300 300 300 300 299 300 300 300 300 300 301 304 308 311 309 308 308 309 309 308 308 308 310 312 312 312 312 312 312 311 309 311 312 312 311 311 311 310 309 309 308 307 307 307
299 300 300 300 300 299 300 300 300 300 300 302 304 309 311 308 308 307 308 309 308 310 311 310 312 313 313 312 310 308 308 310 310 312 312 310 310 310 309 308 307 306 306 305 306
301 301 300 300 300 299 300 299 300 300 301 302 304 308 311 307 308 308 309 309 309 311 312 313 313 313 311 308 306 306 310 311 310 311 311 310 311 311 308 307 307 306 305 304 306
300 300 300 300 300 299 299 300 300 302 304 305 306 310 307 309 307 309 309 309 309 312 312 312 313 305 305 305 305 306 309 310 310 309 311 311 312 308 307 307 307 306 305 305 306
301 301 300 301 300 299 299 300 305 306 304 308 309 308 308 307 307 310 309 311 311 312 309 311 308 305 308 310 309 309 311 309 308 309 312 312 312 307 307 307 307 306 305 306 306
303 301 301 301 300 299 299 300 300 301 300 304 303 305 306 306 310 310 309 311 310 310 309 307 311 309 308 308 310 310 307 306 307 309 313 311 309 307 306 307 306 306 306 305 306
305 304 303 302 300 299 299 299 299 300 303 306 305 307 308 307 310 310 309 311 309 309 308 308 309 308 307 308 310 307 303 302 309 309 311 309 305 307 305 306 306 305 305 304 305
307 304 305 304 299 299 299 299 299 299 301 304 305 307 307 308 309 310 308 310 310 309 308 308 307 307 306 308 307 308 307 308 309 310 308 308 305 299 303 306 306 306 304 303 304
307 305 306 303 300 300 300 298 299 304 318 306 306 306 307 308 309 309 307 310 310 310 307 306 307 307 307 308 307 306 309 308 308 310 313 305 311 300 303 303 304 304 304 303 303
307 305 304 304 300 300 298 299 301 310 313 306 305 305 307 307 308 308 309 308 309 308 307 307 307 306 306 307 306 306 308 308 310 311 305 301 303 301 300 303 303 304 302 301 302
307 306 303 304 299 299 298 300 307 308 305 305 305 306 307 307 308 307 308 308 309 305 309 306 308 307 307 307 306 307 306 301 300 303 307 306 304 303 302 305 305 303 300 300 302
308 306 304 304 299 298 299 301 307 303 302 304 305 306 307 306 306 307 307 306 307 306 305 306 306 307 307 306 307 308 307 303 301 308 307 306 306 305 305 303 304 300 299 299 299
308 307 305 304 301 298 300 300 304 302 303 305 305 306 303 306 306 306 306 306 306 306 305 307 308 306 306 306 306 307 307 306 309 302 308 306 306 305 304 301 300 299 299 299 298
308 306 305 304 300 298 300 302 297 302 304 304 306 304 304 303 306 305 305 304 306 306 306 307 306 305 306 306 306 307 305 307 303 303 305 307 308 307 306 303 299 298 298 299 298
307 305 305 304 299 300 300 294 299 301 304 303 303 304 303 304 302 305 305 304 305 305 306 306 304 304 306 307 306 307 308 307 305 306 310 309 306 302 304 303 298 298 299 299 298
306 302 303 301 298 297 298 293 298 299 302 303 302 303 303 303 303 304 304 304 305 305 305 306 304 303 305 303 303 305 307 306 305 305 305 308 306 303 302 301 299 299 299 299 298
305 301 301 299 300 295 294 295 296 298 301 302 303 302 302 303 303 304 304 304 305 304 305 303 297 294 299 302 304 306 305 306 305 305 307 306 304 300 300 299 299 299 299 299 298
304 299 299 298 297 298 296 296 295 296 299 302 301 302 302 303 302 303 305 304 305 305 306 304 300 300 302 304 304 305 305 305 306 304 306 306 305 303 299 297 297 298 299 299 298
304 300 299 299 299 297 297 298 296 296 298 300 301 302 302 302 303 304 303 303 303 306 304 303 298 299 302 302 303 304 304 304 306 306 306 304 303 303 301 298 298 299 299 298 298
302 299 298 296 300 298 298 297 297 297 298 299 299 301 300 302 302 303 303 302 303 303 302 301 296 296 296 298 300 300 302 302 303 304 304 305 305 301 303 300 299 299 299 298 298
305 305 303 298 299 299 300 296 298 298 298 300 299 300 301 300 302 302 304 303 301 302 302 301 295 291 293 293 292 296 297 299 301 301 303 304 304 301 300 299 300 299 300 299 298
Wind_Speed
8 8 9 8 8 8 8 8 8 9 9 9 7 6 3 2 9 6 5 8 10 10 8 5 4 5 5 5 4 3 4 1 2 4 5 10 6 6 11 9 9 19 16 20 23
6 8 9 9 9 8 7 7 8 8 8 9 7 6 2 1 3 11 9 9 10 11 8 4 4 3 4 3 4 4 3 2 0 0 3 9 4 9 8 12 9 26 15 20 18
5 7 9 9 9 9 8 8 8 8 8 7 5 4 3 2 2 8 9 8 9 10 8 6 3 4 5 6 7 2 3 1 4 3 6 6 7 8 7 3 18 19 25 25 21
8 7 8 9 9 9 9 8 8 8 8 7 5 3 2 2 0 6 7 8 9 10 8 7 3 3 4 3 4 3 3 2 2 5 4 6 8 4 15 10 12 15 20 23 24
8 7 8 9 9 10 10 9 8 8 7 5 4 3 1 1 3 5 6 7 7 8 10 4 9 4 5 2 3 3 3 5 6 3 2 5 11 3 13 16 18 21 22 23 26
9 8 6 7 9 9 10 10 10 9 6 4 3 1 1 1 2 5 5 6 7 9 10 10 6 7 7 3 3 2 4 5 3 8 2 7 6 4 12 20 24 27 29 29 29
12 10 8 7 6 7 9 10 10 8 5 4 3 0 2 3 3 5 4 5 7 8 7 8 8 3 4 3 4 3 3 4 5 10 4 12 3 2 12 20 24 27 27 30 30
14 13 10 7 7 7 6 8 8 6 5 4 2 0 1 2 2 5 4 4 5 6 6 4 5 7 4 2 4 4 4 3 2 9 4 6 5 4 16 23 23 24 28 32 29
15 15 11 8 6 7 8 7 6 6 5 3 2 1 0 3 1 3 3 4 2 4 6 5 4 4 3 4 4 6 1 2 6 1 3 5 4 6 18 18 19 21 23 25 28
16 14 10 9 7 6 6 7 5 4 1 1 1 1 2 1 3 2 3 3 3 3 2 3 4 3 4 4 2 2 1 2 4 4 4 3 2 7 16 18 19 21 22 25 28
17 15 13 10 8 6 5 4 2 2 3 2 1 1 2 4 1 0 3 2 3 4 3 3 5 2 1 1 3 2 1 3 4 3 3 3 1 5 14 17 19 22 22 22 27
16 16 13 9 7 6 4 2 2 2 3 5 5 4 4 2 1 1 2 2 3 2 1 4 1 3 1 3 3 3 1 4 5 4 3 3 5 3 7 9 18 19 21 20 27
15 14 11 8 6 6 4 2 1 1 1 3 3 2 2 3 1 2 2 2 3 2 1 2 1 2 0 2 1 2 4 2 5 5 2 4 3 4 3 10 19 18 19 22 25
16 14 11 8 6 7 5 3 1 1 4 2 2 1 2 3 1 1 1 1 1 1 0 3 0 1 1 2 3 3 5 4 3 3 2 4 4 4 5 5 12 18 21 23 27
17 15 13 12 5 9 5 4 3 1 3 2 2 4 3 2 2 1 0 1 2 2 2 1 2 0 2 2 2 5 4 3 2 3 1 4 1 6 5 5 8 15 17 21 27
18 15 16 15 12 9 7 7 4 5 6 3 3 3 2 1 1 2 1 2 1 1 0 4 1 2 3 1 3 3 2 4 1 0 3 2 4 5 2 4 6 10 16 18 22
19 16 15 16 12 12 11 8 4 3 3 3 4 4 2 3 2 2 1 1 2 2 2 2 1 2 2 2 1 5 4 3 4 4 4 4 2 7 4 2 2 8 12 13 16
22 18 16 17 11 15 16 4 4 2 6 2 3 3 4 5 2 2 3 1 2 3 1 3 4 3 1 1 1 2 3 4 4 2 4 2 4 4 4 5 2 3 6 10 13
26 23 20 19 15 19 10 3 8 7 6 10 3 3 2 2 3 2 6 4 5 6 6 3 3 0 1 2 2 1 2 0 2 3 1 3 4 6 5 5 2 1 4 7 11
34 27 23 20 18 19 2 9 5 4 5 3 8 5 7 4 5 5 6 3 5 4 4 3 1 1 0 2 2 2 3 3 3 2 4 4 4 4 6 7 6 4 1 4 7
36 18 19 22 21 13 5 7 6 9 7 6 7 5 5 7 7 5 6 2 4 5 3 3 2 2 1 3 5 1 1 2 3 4 3 3 5 5 8 8 9 9 5 2 5
36 5 25 31 9 3 6 6 4 5 6 3 4 3 7 8 6 5 8 3 11 10 6 2 3 3 5 0 1 1 3 4 3 4 3 1 6 2 6 9 15 12 8 5 4
30 9 32 36 8 4 2 3 4 5 6 7 7 5 3 7 4 4 4 1 11 7 7 6 0 2 6 5 3 3 5 4 3 2 5 4 5 1 4 5 12 15 10 7 5
21 5 9 21 8 15 7 5 5 10 4 6 5 5 4 3 1 6 4 2 7 5 6 7 3 5 5 3 2 4 4 6 5 3 3 7 3 5 7 8 12 15 15 11 7
18 8 14 8 15 6 11 11 9 6 5 8 4 7 8 5 4 5 4 3 1 6 5 4 4 2 4 6 3 5 6 8 11 8 7 4 8 7 10 13 23 20 17 16 14
18 10 12 8 27 15 13 13 16 6 10 7 4 12 8 7 8 9 8 5 5 3 5 2 1 2 4 3 3 6 13 15 15 13 14 14 21 8 6 13 18 23 21 20 19
31 29 22 19 16 17 17 8 17 12 8 9 16 8 9 7 8 3 8 14 13 9 6 6 5 3 5 4 6 9 14 19 9 7 18 16 13 5 5 12 24 29 28 25 20
Wind_Direction
336 340 342 347 348 347 348 349 351 351 352 351 355 1 14 78 44 33 40 32 26 19 12 27 71 115 116 89 86 106 64 141 2 3 294 343 5 330 329 305 352 357 333 321 319
327 332 337 340 342 344 347 346 349 348 348 346 348 354 4 211 335 25 32 28 19 9 9 53 114 106 58 54 31 72 99 140 150 89 303 300 329 328 348 348 355 346 346 334 324
315 327 331 334 337 340 341 342 345 344 343 344 348 357 0 320 351 15 18 17 8 5 4 21 105 73 61 40 17 27 125 191 198 347 331 319 352 349 6 30 355 338 341 350 345
304 318 328 330 331 333 335 336 340 340 339 338 342 348 19 1 161 3 18 12 9 10 2 38 142 76 71 52 1 86 42 60 285 329 332 332 335 15 48 346 351 344 340 341 345
285 303 318 324 326 328 329 330 332 332 331 329 329 331 306 61 71 22 25 14 6 19 34 78 76 104 105 69 54 62 347 343 357 18 14 2 323 210 25 5 346 336 332 335 335
271 279 294 312 322 326 326 326 328 327 324 324 326 319 180 129 55 33 28 19 20 32 42 58 76 94 100 83 88 356 320 298 5 354 43 3 18 101 349 351 344 337 336 333 331
261 267 280 292 306 317 321 322 324 321 317 317 318 65 83 134 58 24 15 24 27 36 51 62 69 105 98 80 21 19 51 353 10 359 352 339 34 37 344 348 344 341 346 342 334
253 256 262 279 295 302 308 317 320 317 310 308 304 290 135 140 71 9 20 29 35 39 47 71 89 78 69 76 36 53 55 33 313 357 329 359 308 346 4 355 355 350 345 342 343
257 261 259 271 287 302 311 318 318 311 305 293 272 229 143 151 34 10 13 12 49 35 49 74 65 61 64 77 33 12 56 356 325 57 325 44 290 48 7 3 347 337 337 338 343
262 259 262 267 282 294 305 313 316 307 306 114 150 105 179 223 338 28 9 15 42 35 59 54 57 65 34 56 176 242 50 290 261 300 357 319 351 13 8 358 344 337 337 341 342
249 253 260 258 266 280 298 312 304 268 250 219 213 229 245 294 269 42 15 52 42 51 47 24 70 115 206 164 147 157 217 268 261 264 299 285 40 3 360 2 346 345 344 336 342
248 244 253 245 252 270 290 294 273 278 306 251 232 247 249 270 255 192 16 74 49 60 3 18 104 210 196 193 189 207 146 289 288 265 242 355 327 307 0 357 358 349 350 354 351
250 236 237 234 235 246 256 253 250 309 284 257 207 197 215 196 222 194 12 88 95 78 43 168 186 164 88 296 76 210 170 215 228 306 67 315 18 333 354 8 11 7 359 2 3
243 226 218 218 234 224 227 205 176 284 58 225 205 165 187 172 267 210 29 94 92 123 265 230 337 157 319 250 125 302 193 172 262 341 315 6 293 305 330 333 16 7 3 359 6
239 214 207 199 203 196 191 172 145 29 329 105 159 151 158 168 143 185 77 86 153 163 111 244 172 256 288 231 150 235 166 239 225 257 82 353 357 267 334 331 337 360 353 2 17
230 214 212 208 202 190 169 150 129 44 255 178 135 165 123 160 166 151 102 83 71 43 94 245 331 204 228 267 193 296 304 32 351 257 35 233 115 284 289 263 310 322 347 1 14
216 210 216 205 205 183 166 148 46 163 357 216 194 162 158 170 179 150 99 80 146 63 250 350 228 260 225 2 115 46 50 342 354 7 221 149 79 247 243 291 255 310 353 9 18
205 208 209 206 197 182 161 66 170 230 213 141 146 118 176 159 225 149 110 252 196 125 139 174 313 188 178 120 165 42 118 147 258 272 279 142 227 257 182 99 159 332 9 16 18
195 200 207 202 190 179 180 133 204 201 169 152 79 138 259 211 172 164 187 196 194 169 172 156 277 71 94 107 120 109 95 172 89 332 325 260 286 299 166 140 136 318 18 34 30
189 193 208 196 187 180 123 221 222 202 139 126 173 165 175 200 173 194 189 206 176 162 150 186 304 235 156 107 87 142 157 56 20 358 295 283 265 241 222 201 173 217 254 52 49
184 177 202 194 183 188 198 229 220 210 171 159 188 150 190 172 183 203 193 205 168 150 140 134 137 264 153 195 181 85 102 106 136 158 237 303 266 211 220 184 173 192 179 98 70
175 164 175 179 173 211 197 198 216 179 178 180 137 135 177 162 168 213 201 216 167 151 159 152 143 224 214 328 311 145 235 165 145 218 234 248 270 309 214 184 167 179 175 148 108
169 141 170 176 202 201 272 272 240 168 189 170 198 210 173 170 157 185 186 169 161 153 158 171 318 5 349 1 3 207 191 205 114 76 211 154 261 47 141 192 181 169 184 174 152
149 139 153 195 200 188 166 221 212 216 213 163 171 143 130 148 230 171 145 171 170 152 147 135 141 190 193 171 143 211 203 196 171 156 211 229 250 243 208 212 206 188 183 185 176
166 185 172 185 198 171 193 179 176 178 221 185 216 205 168 147 127 173 150 124 79 159 131 131 194 174 256 240 225 238 220 207 209 209 202 242 224 225 220 205 209 200 187 184 185
168 152 162 164 180 184 194 199 186 191 159 213 187 187 188 159 182 185 142 176 184 152 149 146 212 85 300 353 250 260 239 231 231 227 252 259 271 212 253 212 198 205 201 194 186
195 192 170 168 174 184 205 179 198 155 216 191 194 161 195 193 160 140 150 164 160 146 156 147 133 96 265 348 328 297 240 214 213 200 218 231 243 145 194 202 209 206 206 209 197